Location: Obersdorf
(47.4079°N, 10.2781°E)
Time: 06:01:56
(UTC+01:00)

AO-109 - Pass Details

Date: 08 December 2021
Orbit: 478 x 515 km, 60.7° (Epoch: 22 January)

Event Time Altitude Azimuth Distance (km) Brightness Sun altitude
Exits shadow 05:56:14 15° 209° (SSW) 1,349 ? -18.9°
Drops below altitude 10° 05:57:26 10° 193° (SSW) 1,647 ? -18.7°
Sets 06:00:00 0° 175° (S) 2,523 ? -18.3°
